Location: Nairn
(57.5833°N, 3.8667°W)
Time: 20:07:51
(UTC+00:00)

Tiros 1 - Pass Details

Date: 27 November 2020
Orbit: 630 x 663 km, 48.4° (Epoch: 22 January)

Event Time Altitude Azimuth Distance (km) Brightness Sun altitude
Rises 16:01:16 0° 199° (SSW) 2,986 11.6 -3.0°
Reaches altitude 10° 16:05:01 10° 170° (S) 2,074 10.1 -3.4°
Maximum altitude 16:06:52 12° 146° (SSE) 1,929 9.6 -3.6°
Drops below altitude 10° 16:08:44 10° 123° (ESE) 2,072 9.5 -3.8°
Sets 16:12:28 0° 94° (E) 2,981 10.1 -4.3°
